Location: Austin
(30.3000°N, 97.7500°W)
Time: 10:36:13
(UTC-05:00)

CENTAUR R/B - Pass Details

Date: 03 April 2024
Orbit: 676 x 1509 km, 63.4° (Epoch: 20 April)

Event Time Altitude Azimuth Distance (km) Brightness Sun altitude
Rises 03:30:34 0° 337° (NNW) 4,322 6.1 -44.6°
Reaches altitude 10° 03:33:30 10° 344° (NNW) 3,443 5.6 -44.2°
Maximum altitude 03:41:47 46° 56° (NE) 1,905 4.1 -42.9°
Drops below altitude 10° 03:50:34 10° 127° (SE) 3,654 5.5 -41.5°
Sets 03:53:44 0° 133° (SE) 4,606 6.1 -41.0°
